CW7079 Weather Reports


Display with metric or nautical units.
time (UTC)temp
F
wind
direction
speed
MPH
gust
MPH
rain 1hr
in
rain 24hr
in
rain mn
in
humidity
%
barometer
mb
20260507111056 56 111 3.0 9.0 0.00 0.00 0.00 66 1017.4
20260507104036 56 105 0.0 4.0 0.00 0.00 0.00 66 1017.5
20260507101149 57 96 1.0 6.0 0.00 0.00 0.00 65 1017.6
20260507094027 57 121 1.0 7.0 0.00 0.00 0.00 67 1017.7
20260507091107 56 111 1.0 7.0 0.00 0.00 0.00 70 1017.5
20260507084030 53 111 2.0 2.0 0.00 0.00 0.00 75 1017.8
20260507081044 53 111 4.0 9.0 0.00 0.00 0.00 74 1017.6
20260507074017 52 78 3.0 8.0 0.00 0.00 0.00 77 1017.6
20260507070858 51 50 1.0 4.0 0.00 0.00 0.00 84 1017.5
20260507063847 48 50 1.0 4.0 0.00 0.00 0.00 90 1017.4
20260507060933 45 50 0.0 0.0 0.00 0.00 0.00 92 1017.4
20260507054048 39 50 0.0 0.0 0.00 0.00 0.00 91 1017.4
20260507051044 39 50 0.0 0.0 0.00 0.00 0.00 90 1017.3
20260507043940 39 50 0.0 0.0 0.00 0.00 0.00 89 1016.9
20260507040831 41 50 0.0 0.0 0.00 0.00 0.00 88 1016.8
20260507033701 42 50 0.0 0.0 0.00 0.00 0.00 88 1016.8
20260507023643 46 49 1.0 4.0 0.00 0.00 0.00 87 1016.7
20260507013545 47 49 2.0 4.0 0.00 0.00 0.00 86 1016.7
20260507010503 47 50 0.0 3.0 0.00 0.00 0.00 86 1016.8
20260507003357 48 50 1.0 4.0 0.00 0.00 0.00 86 1016.6
20260507000344 48 50 1.0 4.0 0.00 0.00 0.00 86 1016.6
20260506233309 48 49 2.0 5.0 0.00 0.00 0.00 86 1016.6
20260506215956 49 51 5.0 8.0 0.00 0.00 0.00 85 1016.3
20260506212914 49 41 5.0 9.0 0.00 0.00 0.00 85 1016.2
20260506210017 48 29 5.0 9.0 0.00 0.00 0.00 86 1015.8
20260506195853 49 13 6.0 12.0 0.00 0.00 0.00 85 1015.6
20260506185523 50 11 7.0 11.0 0.00 0.00 0.00 82 1015.2
20260506182448 51 14 7.0 13.0 0.00 0.00 0.00 81 1014.8
20260506172325 53 11 9.0 15.0 0.00 0.00 0.00 77 1014.3
20260506165359 55 9 6.0 12.0 0.00 0.00 0.00 72 1014.3
20260506162421 55 0 6.0 10.0 0.00 0.00 0.00 70 1014.3
20260506155529 55 0 9.0 16.0 0.00 0.00 0.00 69 1014.3
20260506152559 55 22 10.0 16.0 0.00 0.00 0.00 65 1014.2
20260506145626 56 19 10.0 15.0 0.00 0.00 0.00 64 1014.2
20260506132449 58 11 8.0 14.0 0.00 0.00 0.00 55 1014.2
20260506125331 57 11 10.0 16.0 0.00 0.00 0.00 59 1014.2
20260506122305 56 19 7.0 13.0 0.00 0.00 0.00 63 1014.3
20260506115249 55 36 12.0 19.0 0.00 0.00 0.00 66 1014.3